CST,Max TemperatureF,Mean TemperatureF,Min TemperatureF,Max Dew PointF,MeanDew PointF,Min DewpointF,Max Humidity, Mean Humidity, Min Humidity, Max Sea Level PressureIn, Mean Sea Level PressureIn, Min Sea Level PressureIn, Max VisibilityMiles, Mean VisibilityMiles, Min VisibilityMiles, Max Wind SpeedMPH, Mean Wind SpeedMPH, Max Gust SpeedMPH,PrecipitationIn, CloudCover, Events, WindDirDegrees
2013-1-1,15,4,-7,10,0,-12,83,77,60,30.24,30.13,29.99,10,10,7,15,8,21,0.00,4,Snow,234
2013-1-2,21,18,15,17,15,11,93,86,80,30.03,29.97,29.93,10,8,2,10,6,,0.00,8,Snow,208
2013-1-3,22,18,13,19,10,4,89,72,48,30.18,30.06,29.88,10,9,4,23,11,30,0.00,3,Snow,259
2013-1-4,35,23,11,20,15,8,97,74,53,30.12,30.01,29.92,10,10,10,13,8,18,0.00,0,,264
2013-1-5,28,16,3,22,12,-1,96,82,64,30.10,29.97,29.86,10,10,10,15,1,18,0.00,3,,326
2013-1-6,23,16,7,18,11,4,91,74,55,30.19,30.10,29.98,10,10,10,13,6,,0.00,3,,283
2013-1-7,41,23,5,24,19,2,89,71,51,29.97,29.81,29.73,10,10,10,21,8,26,0.00,0,,239
2013-1-8,33,22,10,28,21,8,97,87,78,29.99,29.86,29.70,10,10,1,18,6,23,0.00,3,,218
2013-1-9,34,25,15,27,21,14,93,71,58,30.31,30.05,29.74,10,10,10,30,13,44,0.00,4,,254
2013-1-10,44,27,10,32,19,9,97,69,32,30.32,30.09,29.75,10,9,2,17,3,25,0.24,2,Rain,166
2013-1-11,37,34,32,37,35,32,100,100,98,29.74,29.53,29.31,7,3,0,6,2,,0.16,8,Rain,77
2013-1-12,39,24,8,38,17,-1,100,77,59,30.04,29.69,29.30,10,9,1,24,10,31,0.00,8,Rain,270
2013-1-13,11,7,3,7,1,-2,84,74,66,30.17,30.08,30.02,10,9,2,10,7,,0.00,4,Snow,289
2013-1-14,12,8,3,4,0,-2,84,72,55,30.34,30.29,30.18,10,10,4,15,7,18,0.00,5,Snow,246
2013-1-15,27,16,4,13,7,1,89,69,47,30.27,30.06,29.71,10,10,5,17,6,26,0.00,4,Snow,228
2013-1-16,29,16,4,25,11,-8,90,66,47,30.25,29.80,29.53,10,9,2,21,15,30,0.00,4,Snow,296
2013-1-17,12,4,-3,0,-5,-11,84,67,51,30.38,30.33,30.26,10,9,2,12,6,16,0.00,5,Snow,269
2013-1-18,19,10,2,16,10,-2,89,84,77,30.30,29.93,29.75,10,8,1,9,2,,0.09,8,Snow,106
2013-1-19,32,16,1,24,10,-8,93,75,58,30.15,29.79,29.57,10,9,2,31,9,39,0.03,6,Snow,297
2013-1-20,3,-2,-8,-8,-11,-16,76,67,58,30.35,30.26,30.17,10,10,10,17,10,22,0.00,2,,279
2013-1-21,-6,-10,-15,-17,-22,-26,68,59,48,30.28,30.24,30.22,10,10,10,18,10,25,0.00,3,,292
2013-1-22,1,-9,-19,-12,-19,-26,73,63,49,30.36,30.29,30.20,10,10,10,14,7,18,0.00,0,,248
2013-1-23,9,-1,-11,-1,-11,-21,81,64,46,30.64,30.29,30.11,10,10,5,26,9,32,0.00,5,,293
2013-1-24,7,-6,-17,0,-14,-24,85,69,57,30.69,30.53,30.18,10,9,1,7,3,,0.01,4,Snow,277
2013-1-25,16,10,3,9,3,-4,89,74,61,30.28,30.05,29.89,10,8,1,15,5,20,0.01,6,Snow,309
2013-1-26,18,5,-8,8,-1,-12,89,74,61,30.37,30.27,30.17,10,10,10,8,4,,0.00,3,,210
2013-1-27,30,16,1,29,15,-2,98,81,61,30.16,30.00,29.85,10,8,2,12,3,16,0.00,4,Snow,82
2013-1-28,32,28,24,30,28,24,100,94,83,29.91,29.84,29.67,10,6,0,9,2,,0.00,8,Fog-Snow,117
2013-1-29,34,28,21,31,27,16,100,87,67,29.77,29.63,29.52,10,8,2,20,6,25,0.01,7,Snow,343
2013-1-30,23,16,7,18,7,0,83,70,60,29.75,29.67,29.63,10,10,10,18,10,25,0.00,8,,341
2013-1-31,7,0,-8,0,-5,-16,75,65,57,30.19,29.93,29.69,10,9,3,18,11,24,0.00,6,Snow,314